Location: Gajan
(43.0218°N, 1.1244°E)
Time: 14:31:17
(UTC+00:00)

NOSS 0 Rocket - Pass Details

Date: 22 April 2021
Orbit: 935 x 955 km, 70.0° (Epoch: 12 May)

Event Time Altitude Azimuth Distance (km) Brightness Sun altitude
Rises 20:10:40 0° 331° (NNW) 3,627 8.2 -14.7°
Reaches altitude 10° 20:13:13 10° 328° (NNW) 2,681 7.4 -15.1°
Maximum altitude 20:19:22 65° 249° (WSW) 1,043 4.3 -16.0°
Enters shadow 20:24:40 14° 170° (S) 2,373 5.6 -16.8°
